Погода в Шведине

Россия / Ставропольский край     45°24′58″N   42°52′53″E
темп.,
°C
ветер,
м/с
пор.,
м/с
влажн.,
%
обл.,
%
осадки,
мм/ч
давл.,
гПа
погр.,
м
6 марта, сб
сб600:00+4ююв33550 0.0 101824
03:00+3ююз23630 0.0 101823
06:00+2юз236315 0.0 101722
09:00+7ююз235119 0.0 1016114
12:00+12зюз473162 0.0 1014889
15:00+12з6113881 0.0 10121302
18:00+9з3455100 0.0 101148
21:00+8зюз51665100 0.0 1011897
7 марта, вс
вс700:00+3сз101395100 1.3 1014638
03:00−1сз91393100 3.2 1019800
06:00−3сз7118167 0.3 1024675
09:00−3сз696533 0.3 1026766
12:000зсз57500 0.0 10251120
15:00+1зсз46490 0.0 10231238
18:00−1зюз35630 0.0 102297
21:00−2юз49670 0.0 1023261
8 марта, пн
пн800:00−2юз510660 0.0 1022358
03:00−2зюз511650 0.0 1021468
06:00−2юз510620 0.0 1021349
09:00+1зюз69530 0.0 1020985
12:00+4зюз68460 0.0 10181257
15:00+5зюз69470 0.0 10161407
18:00+1юз476520 0.0 1016137
21:00+1юз5107260 0.0 1017279
9 марта, вт
вт900:000юз5117517 0.0 1017298
03:00−1юз4107649 0.0 1016296
06:00−1юз5117080 0.0 1016390
09:00+3зюз8125884 0.0 10161084
12:00+5з81357100 0.0 10151523
15:00+5з91372100 0.1 10151386
18:000зсз6998100 1.6 1016383
21:000з6997100 2.5 1019549
10 марта, ср
ср1000:00−1зсз6109593 0.1 1020464
03:00−3зсз489564 0.2 1021336
06:00−3з369468 0.0 1023228
09:00−1зсз346842 0.0 1024656
12:00+1сз224540 0.0 10241265
15:00+2ссв324669 0.0 10231399
18:00−1св3665100 0.0 1022153
21:00−2всв5871100 0.0 1023341